^^
Datos históricos de la estación: Murcia-Puente Tocinos
Diario Informe para Julio 22, 2019 Unidades:  Inglés    Métrico   Ambas
Diario Semanal Mensual Anual Configurable
  Máximo: Mínimo: Media:
Temperatura: 90.9 °F 76.5 °F 83.5 °F
Punto de rocio: 67.3 °F 51.3 °F 62.4 °F
Humedad: 67% 27% 51%
Velocidad viento: 14mph 0mph 6.6mph
Racha viento: 25.3mph - -
Viento- - ESE
Presión: 30.1 in 30 in -
Precipitación: 0 in    
Historical Graphs
 
 
Tabla de datos para Julio 22, 2019
Hora Temperatura Punto de rocio Presión Viento Velocidad viento Racha viento Humedad Intensidad lluvia(por hora) Nubes
00:04 79.9 °F 67.1 °F 30.1 in NE 5.9 mph 9.2 mph 65% 0 in CLR
00:09 79.7 °F 67.3 °F 30.1 in NNE 5.4 mph 10.4 mph 66% 0 in CLR
00:14 79.5 °F 67.3 °F 30.1 in NE 5.4 mph 4.6 mph 66% 0 in CLR
00:19 79.5 °F 67.3 °F 30.1 in North 4.3 mph 5.2 mph 66% 0 in CLR
00:24 79.3 °F 66.9 °F 30.1 in NE 4.3 mph 3.5 mph 66% 0 in CLR
00:29 79.3 °F 66.9 °F 30.1 in North 2.4 mph 2.9 mph 66% 0 in CLR
00:34 79.3 °F 66.9 °F 30.1 in NNE 2.4 mph 4.6 mph 66% 0 in CLR
00:39 79.3 °F 66.9 °F 30.1 in NE 2 mph 2.3 mph 66% 0 in CLR
00:44 79.3 °F 66.9 °F 30.1 in North 2 mph   66% 0 in CLR
00:49 79.2 °F 66.7 °F 30.1 in North 1.8 mph 3.5 mph 66% 0 in CLR
00:54 79.3 °F 66.9 °F 30.1 in NW 1.8 mph 3.6 mph 66% 0 in CLR
00:59 79.3 °F 66.9 °F 30.1 in NW 1.8 mph 2.9 mph 66% 0 in CLR
01:04 79.2 °F 66.7 °F 30.1 in NW 1.8 mph 2.3 mph 66% 0 in CLR
01:09 79.2 °F 66.7 °F 30.1 in NW 1.8 mph 3.5 mph 66% 0 in CLR
01:14 79.2 °F 66.4 °F 30.1 in NW 1.8 mph 4.6 mph 65% 0 in CLR
01:19 79.2 °F 66.4 °F 30.1 in NW 2.4 mph 3.5 mph 65% 0 in CLR
01:24 79.2 °F 66.4 °F 30.1 in NW 2.4 mph 2.3 mph 65% 0 in CLR
01:29 79.2 °F 66.4 °F 30.1 in NW 1.4 mph   65% 0 in CLR
01:34 79.2 °F 66.4 °F 30.1 in NW 1.4 mph 2 mph 65% 0 in CLR
01:39 79.2 °F 66.4 °F 30.1 in Calm   2.3 mph 65% 0 in CLR
01:44 79.2 °F 66.4 °F 30.1 in Calm     65% 0 in CLR
01:49 79.2 °F 66.4 °F 30.1 in Calm   3.5 mph 65% 0 in CLR
01:54 79.2 °F 66.4 °F 30.1 in Calm   2.9 mph 65% 0 in CLR
01:59 79.2 °F 66.4 °F 30.1 in NW 2.4 mph 4.6 mph 65% 0 in CLR
02:04 79.2 °F 65.8 °F 30.1 in WNW 2.4 mph 3.5 mph 64% 0 in CLR
02:09 79 °F 65.8 °F 30.1 in WNW 2.4 mph 3.5 mph 64% 0 in CLR
02:14 79 °F 65.8 °F 30.1 in WNW 2.4 mph   64% 0 in CLR
02:19 79 °F 65.8 °F 30.1 in WSW 1.4 mph 4.6 mph 64% 0 in CLR
02:24 79.2 °F 65.8 °F 30.1 in WSW 1.4 mph 4.6 mph 64% 0 in CLR
02:29 79.2 °F 65.8 °F 30.1 in WSW 2.4 mph 3.5 mph 64% 0 in CLR
02:34 79.2 °F 65.5 °F 30.1 in WSW 2.4 mph 2.4 mph 63% 0 in CLR
02:39 79.2 °F 65.5 °F 30.1 in West 1.8 mph 3.5 mph 63% 0 in CLR
02:44 79.3 °F 65.7 °F 30.1 in WSW 1.8 mph 4.6 mph 63% 0 in CLR
02:49 79.5 °F 65.5 °F 30.1 in WSW 2 mph 4.6 mph 62% 0 in CLR
02:54 79.5 °F 65.5 °F 30.1 in WSW 2 mph 3.5 mph 62% 0 in CLR
02:59 79.5 °F 64.9 °F 30.1 in WSW 1.8 mph   61% 0 in CLR
03:04 79.7 °F 65.1 °F 30.1 in WSW 1.8 mph   61% 0 in CLR
03:09 79.9 °F 65.7 °F 30.1 in Calm     62% 0 in CLR
03:14 79.9 °F 65.7 °F 30.1 in Calm     62% 0 in CLR
03:19 79.7 °F 65.5 °F 30.1 in Calm     62% 0 in CLR
03:24 79.5 °F 65.5 °F 30.1 in Calm   5.2 mph 62% 0 in CLR
03:29 79.5 °F 65.8 °F 30.1 in South 2.9 mph 5.8 mph 63% 0 in CLR
03:34 79.3 °F 66 °F 30.1 in South 2.9 mph 5.8 mph 64% 0 in CLR
03:39 79.2 °F 66.4 °F 30.1 in South 4 mph 6.9 mph 65% 0 in CLR
03:44 79 °F 66.2 °F 30.1 in South 4 mph 5.8 mph 65% 0 in CLR
03:49 78.8 °F 66.6 °F 30.1 in SSW 5.2 mph 6.9 mph 66% 0 in CLR
03:54 78.8 °F 66.6 °F 30.1 in SSW 5.2 mph 5.8 mph 66% 0 in CLR
03:59 79 °F 66.6 °F 30.1 in SW 4 mph 5.2 mph 66% 0 in CLR
04:04 79 °F 66.6 °F 30.1 in SW 4 mph 5.8 mph 66% 0 in CLR
04:09 79 °F 66.6 °F 30.1 in SW 4.3 mph 6.9 mph 66% 0 in CLR
04:14 79 °F 66.6 °F 30.1 in South 4.3 mph 5.8 mph 66% 0 in CLR
04:19 78.8 °F 66.6 °F 30.1 in SW 4 mph 6.9 mph 66% 0 in CLR
04:24 78.6 °F 66.4 °F 30.1 in SSW 4 mph 5.8 mph 66% 0 in CLR
04:29 78.6 °F 66.4 °F 30.1 in South 4.7 mph 4.6 mph 66% 0 in CLR
04:34 78.4 °F 66 °F 30.1 in SSE 4.7 mph 2.3 mph 66% 0 in CLR
04:39 78.4 °F 66 °F 30.1 in SSW 2.9 mph 4.6 mph 66% 0 in CLR
04:44 78.4 °F 66 °F 30.1 in SSW 2.9 mph 4.6 mph 66% 0 in CLR
04:49 78.3 °F 66 °F 30.1 in SW 3.6 mph 4.6 mph 66% 0 in CLR
04:54 78.3 °F 66.4 °F 30.1 in SSW 3.6 mph 5.8 mph 67% 0 in CLR
04:59 78.1 °F 65.8 °F 30.1 in SSW 3.6 mph 4.6 mph 66% 0 in CLR
05:04 78.1 °F 66.2 °F 30.1 in South 3.6 mph 4.6 mph 67% 0 in CLR
05:09 78.1 °F 65.8 °F 30.1 in SSW 3.1 mph 5.8 mph 66% 0 in CLR
05:14 77.9 °F 65.7 °F 30.1 in South 3.1 mph 4.6 mph 66% 0 in CLR
05:19 77.7 °F 65.5 °F 30.1 in SSW 3.6 mph 4.7 mph 66% 0 in CLR
05:24 77.7 °F 65.5 °F 30.1 in SSW 3.6 mph 4.6 mph 66% 0 in CLR
05:29 77.7 °F 65.5 °F 30.1 in SSW 4 mph 5.8 mph 66% 0 in CLR
05:34 77.5 °F 65.3 °F 30.1 in South 4 mph 5.2 mph 66% 0 in CLR
05:39 77.5 °F 65.3 °F 30.1 in South 3.6 mph 4.6 mph 66% 0 in CLR
05:44 77.5 °F 65.3 °F 30.1 in SSW 3.6 mph 5.4 mph 66% 0 in CLR
05:49 77.4 °F 65.1 °F 30.1 in SSW 3.6 mph 4.6 mph 66% 0 in CLR
05:54 77.2 °F 64.6 °F 30.1 in SSW 3.6 mph 5.8 mph 65% 0 in CLR
05:59 77.2 °F 64.6 °F 30.1 in SW 4 mph 4.6 mph 65% 0 in CLR
06:04 77.2 °F 64.6 °F 30.1 in SW 4 mph 3.5 mph 65% 0 in CLR
06:09 77.2 °F 64.6 °F 30.1 in SW 2.9 mph 3.5 mph 65% 0 in CLR
06:14 77.2 °F 64.6 °F 30.1 in SSW 2.9 mph 4.6 mph 65% 0 in CLR
06:19 77.2 °F 64.6 °F 30.1 in SSW 2.4 mph 3.5 mph 65% 0 in CLR
06:24 77 °F 64.2 °F 30.1 in SSW 2.4 mph 5.8 mph 65% 0 in CLR
06:29 76.8 °F 64.2 °F 30.1 in South 3.6 mph 6.9 mph 65% 0 in CLR
06:34 76.8 °F 63.7 °F 30.1 in South 3.6 mph 8.1 mph 64% 0 in CLR
06:39 76.6 °F 63.5 °F 30.1 in SW 4.7 mph 6.9 mph 64% 0 in CLR
06:44 76.6 °F 63.5 °F 30.1 in SSE 4.7 mph 5.8 mph 64% 0 in CLR
06:49 76.5 °F 63.3 °F 30.1 in SW 4 mph 5.8 mph 64% 0 in CLR
06:54 76.5 °F 63.3 °F 30.1 in SW 4 mph 4.6 mph 64% 0 in CLR
06:59 76.5 °F 63.3 °F 30.1 in SW 3.1 mph 4.6 mph 64% 0 in CLR
07:04 76.5 °F 63.3 °F 30.1 in SW 3.1 mph 4.6 mph 64% 0 in CLR
07:09 76.5 °F 63.3 °F 30.1 in SSW 3.1 mph 5.8 mph 64% 0 in CLR
07:14 76.6 °F 63.5 °F 30.1 in South 3.1 mph 5.8 mph 64% 0 in CLR
07:19 76.6 °F 63.5 °F 30.1 in SW 4.3 mph 6.9 mph 64% 0 in CLR
07:24 76.6 °F 63.5 °F 30.1 in SSW 4.3 mph 8.1 mph 64% 0 in CLR
07:29 76.5 °F 63.3 °F 30.1 in South 5.2 mph 6.9 mph 64% 0 in CLR
07:34 76.5 °F 63.3 °F 30.1 in SW 5.2 mph 9.2 mph 64% 0 in CLR
07:39 76.5 °F 63.3 °F 30.1 in South 5.2 mph 8.1 mph 64% 0 in CLR
07:44 76.5 °F 63.9 °F 30.1 in South 5.2 mph 5.8 mph 65% 0 in CLR
07:49 76.5 °F 63.9 °F 30.1 in SW 4.7 mph 5.8 mph 65% 0 in CLR
07:54 76.5 °F 63.3 °F 30.1 in WSW 4.7 mph 5.8 mph 64% 0 in CLR
07:59 76.6 °F 63.5 °F 30.1 in SW 4 mph 4.6 mph 64% 0 in CLR
08:04 76.6 °F 63.1 °F 30.1 in SSW 4 mph 4.6 mph 63% 0 in CLR
08:09 76.8 °F 63.3 °F 30.1 in South 3.1 mph 4.6 mph 63% 0 in CLR
08:14 77.2 °F 63.7 °F 30.1 in SSW 3.1 mph 4.7 mph 63% 0 in CLR
08:19 77.4 °F 63.9 °F 30.1 in SSE 3.1 mph 5.8 mph 63% 0 in CLR
08:24 77.5 °F 63.5 °F 30.1 in SSW 3.1 mph 4.6 mph 62% 0 in CLR
08:29 77.5 °F 63.5 °F 30.1 in SSW 3.1 mph 4.7 mph 62% 0 in CLR
08:34 77.7 °F 63.1 °F 30.1 in South 3.1 mph 5.8 mph 61% 0 in CLR
08:39 77.7 °F 63.1 °F 30.1 in South 3.1 mph 4.6 mph 61% 0 in CLR
08:44 78.1 °F 63.5 °F 30.1 in SSE 3.1 mph 4.6 mph 61% 0 in CLR
08:49 78.3 °F 63.1 °F 30.1 in West 2.9 mph 3.5 mph 60% 0 in CLR
08:54 78.6 °F 63.1 °F 30.1 in West 2.9 mph 3.5 mph 59% 0 in CLR
08:59 79 °F 63.3 °F 30.1 in South 1.8 mph 4.6 mph 59% 0 in CLR
09:04 79.2 °F 62.6 °F 30.1 in NW 1.8 mph 3.5 mph 57% 0 in CLR
09:09 79.3 °F 62.8 °F 30.1 in West 2.4 mph 4.3 mph 57% 0 in CLR
09:14 79.5 °F 62.4 °F 30.1 in NW 2.4 mph 3.6 mph 56% 0 in CLR
09:19 79.9 °F 62.2 °F 30.1 in NW 2.4 mph 3.5 mph 55% 0 in CLR
09:24 80.2 °F 62.1 °F 30.1 in WNW 2.4 mph 4.6 mph 54% 0 in CLR
09:29 80.8 °F 62.6 °F 30.1 in West 2.4 mph 4.6 mph 54% 0 in CLR
09:34 81 °F 62.2 °F 30.1 in West 2.4 mph 4.6 mph 53% 0 in CLR
09:39 81.1 °F 62.4 °F 30.1 in NW 2.9 mph 3.5 mph 53% 0 in CLR
09:44 81.7 °F 63 °F 30.1 in SE 2.9 mph 4.6 mph 53% 0 in CLR
09:49 82.2 °F 63.3 °F 30.1 in NNW 2.4 mph 2.3 mph 53% 0 in CLR
09:54 82.8 °F 63.3 °F 30.1 in NE 2.4 mph 6.9 mph 52% 0 in CLR
09:59 82.8 °F 63.9 °F 30.1 in ENE 3.6 mph 5.8 mph 53% 0 in CLR
10:04 82.8 °F 63.9 °F 30.1 in NE 3.6 mph 11.5 mph 53% 0 in CLR
10:09 82.2 °F 63.9 °F 30.1 in ENE 6.4 mph 10.4 mph 54% 0 in CLR
10:14 82.4 °F 64 °F 30.1 in NE 6.4 mph 9.2 mph 54% 0 in CLR
10:19 82.6 °F 64.2 °F 30.1 in NNE 5.9 mph 9.7 mph 54% 0 in CLR
10:24 82.9 °F 64 °F 30.1 in NE 5.9 mph 9.2 mph 53% 0 in CLR
10:29 83.1 °F 63.7 °F 30.1 in ENE 6.2 mph 9.2 mph 52% 0 in CLR
10:34 83.3 °F 63.9 °F 30.1 in North 6.2 mph 10 mph 52% 0 in CLR
10:39 83.5 °F 64 °F 30.1 in NNE 6.4 mph 10.2 mph 52% 0 in CLR
10:44 83.5 °F 64.6 °F 30.1 in North 6.4 mph 9.7 mph 53% 0 in CLR
10:49 83.7 °F 63.7 °F 30.1 in NNW 8.1 mph 17.3 mph 51% 0 in CLR
10:54 84 °F 63.9 °F 30.1 in NNE 8.1 mph 13.8 mph 51% 0 in CLR
10:59 84 °F 64.6 °F 30.1 in ENE 9.2 mph 10.4 mph 52% 0 in CLR
11:04 84.6 °F 64.4 °F 30.1 in NE 9.2 mph 8.1 mph 51% 0 in CLR
11:09 84.7 °F 63.5 °F 30.1 in NE 7.6 mph 15 mph 49% 0 in CLR
11:14 84.9 °F 63.7 °F 30.1 in NNE 7.6 mph 16.8 mph 49% 0 in CLR
11:19 85.3 °F 63.3 °F 30.1 in NNE 10 mph 17.3 mph 48% 0 in CLR
11:24 85.5 °F 62.2 °F 30.1 in NNE 10 mph 13.8 mph 46% 0 in CLR
11:29 85.8 °F 59.4 °F 30.1 in NE 10.2 mph 17.3 mph 41% 0 in CLR
11:34 86.2 °F 59 °F 30.1 in ENE 10.2 mph 16.1 mph 40% 0 in CLR
11:39 86.4 °F 58.5 °F 30.1 in East 11.8 mph 17.3 mph 39% 0 in CLR
11:44 87.3 °F 57.7 °F 30.1 in NNE 11.8 mph 17.3 mph 37% 0 in CLR
11:49 87.6 °F 56.7 °F 30.1 in ENE 10 mph 13.8 mph 35% 0 in CLR
11:54 88 °F 56.8 °F 30.1 in North 10 mph 15 mph 35% 0 in CLR
11:59 88 °F 56.1 °F 30.1 in NNE 10.2 mph 13.8 mph 34% 0 in CLR
12:04 88.2 °F 57 °F 30.1 in ENE 10.2 mph 11.5 mph 35% 0 in CLR
12:09 88.2 °F 55.4 °F 30.1 in ENE 10 mph 20.7 mph 33% 0 in CLR
12:14 88.2 °F 56.3 °F 30.1 in NE 10 mph 11.5 mph 34% 0 in CLR
12:19 88 °F 56.1 °F 30.1 in NE 10.7 mph 17.3 mph 34% 0 in CLR
12:24 88.3 °F 55.6 °F 30.1 in NNE 10.7 mph 15 mph 33% 0 in CLR
12:29 88.5 °F 56.7 °F 30.1 in East 10.7 mph 16.1 mph 34% 0 in CLR
12:34 88.9 °F 55.2 °F 30.1 in ENE 10.7 mph 16.1 mph 32% 0 in CLR
12:39 89.2 °F 55.6 °F 30.1 in NE 9.7 mph 15 mph 32% 0 in CLR
12:44 89.2 °F 53.8 °F 30.1 in NNE 9.7 mph 15 mph 30% 0 in CLR
12:49 89.4 °F 54 °F 30.1 in NNE 10.2 mph 16.1 mph 30% 0 in CLR
12:54 89.2 °F 53.8 °F 30.1 in ENE 10.2 mph 15 mph 30% 0 in CLR
12:59 89.6 °F 51.3 °F 30.1 in NNE 11.4 mph 20.7 mph 27% 0 in CLR
13:04 90 °F 52.5 °F 30.1 in NE 11.4 mph 15 mph 28% 0 in CLR
13:09 90.1 °F 52.5 °F 30.1 in ENE 10.2 mph 17.3 mph 28% 0 in CLR
13:14 90 °F 53.4 °F 30.1 in NE 10.2 mph 15.2 mph 29% 0 in CLR
13:19 90 °F 55.2 °F 30.1 in East 11.2 mph 12.7 mph 31% 0 in CLR
13:24 90.1 °F 55.4 °F 30.1 in ENE 11.2 mph 18.4 mph 31% 0 in CLR
13:29 90.1 °F 56.3 °F 30.1 in NE 10 mph 14.7 mph 32% 0 in CLR
13:34 89.8 °F 55.9 °F 30.1 in ENE 10 mph 15 mph 32% 0 in CLR
13:39 89.8 °F 57.7 °F 30.1 in NE 10.7 mph 13.8 mph 34% 0 in CLR
13:44 89.8 °F 55.9 °F 30.1 in NE 10.7 mph 15.2 mph 32% 0 in CLR
13:49 89.4 °F 56.5 °F 30.1 in ENE 10 mph 17.3 mph 33% 0 in CLR
13:54 89.6 °F 56.7 °F 30.1 in ENE 10 mph 12.7 mph 33% 0 in CLR
13:59 89.6 °F 59.2 °F 30.1 in NNE 10.7 mph 13.8 mph 36% 0 in CLR
14:04 89.4 °F 58.3 °F 30.1 in NE 10.7 mph 18.4 mph 35% 0 in CLR
14:09 89.4 °F 59 °F 30.1 in NE 11.8 mph 17.3 mph 36% 0 in CLR
14:14 89.4 °F 59.7 °F 30.1 in NE 11.8 mph 18.4 mph 37% 0 in CLR
14:19 89.2 °F 58.8 °F 30.1 in NE 11.4 mph 17.3 mph 36% 0 in CLR
14:24 89.6 °F 59.9 °F 30.1 in NNE 11.4 mph 13.7 mph 37% 0 in CLR
14:29 89.4 °F 59 °F 30.1 in East 11.4 mph 13.8 mph 36% 0 in CLR
14:34 89.8 °F 59.4 °F 30.1 in NE 11.4 mph 15 mph 36% 0 in CLR
14:39 89.4 °F 59.7 °F 30.1 in NNE 10.2 mph 23 mph 37% 0 in CLR
14:44 89.8 °F 60.1 °F 30.1 in NNE 10.2 mph 16.1 mph 37% 0 in CLR
14:49 89.8 °F 59.4 °F 30.1 in NE 11.4 mph 17.3 mph 36% 0 in CLR
14:54 89.6 °F 58.3 °F 30.1 in NNE 11.4 mph 21.9 mph 35% 0 in CLR
14:59 89.8 °F 60.1 °F 30.1 in NNE 13 mph 20.7 mph 37% 0 in CLR
15:04 90 °F 59.4 °F 30.1 in NNE 13 mph 21.3 mph 36% 0 in CLR
15:09 90.1 °F 59.5 °F 30.1 in North 13.5 mph 17.3 mph 36% 0 in CLR
15:14 90.7 °F 60.1 °F 30.1 in NE 13.5 mph 19.6 mph 36% 0 in CLR
15:19 90.3 °F 61.3 °F 30.1 in ENE 10.7 mph 17.3 mph 38% 0 in CLR
15:24 90.3 °F 60.4 °F 30.1 in NE 10.7 mph 13.7 mph 37% 0 in CLR
15:29 90.3 °F 60.4 °F 30.1 in NNE 10 mph 16.1 mph 37% 0 in CLR
15:34 90.5 °F 60.6 °F 30 in ENE 10 mph 20.7 mph 37% 0 in CLR
15:39 90.7 °F 60.8 °F 30 in NNE 10 mph 13.8 mph 37% 0 in CLR
15:44 90.7 °F 60.8 °F 30 in ESE 10 mph 11.5 mph 37% 0 in CLR
15:49 90.7 °F 60.8 °F 30 in North 10.7 mph 20.7 mph 37% 0 in CLR
15:54 90.3 °F 60.4 °F 30 in ENE 10.7 mph 18.4 mph 37% 0 in CLR
15:59 90.3 °F 61.3 °F 30 in NE 11.2 mph 16.1 mph 38% 0 in CLR
16:04 90.7 °F 61.5 °F 30 in ESE 11.2 mph 20.7 mph 38% 0 in CLR
16:09 90.7 °F 60.8 °F 30 in East 10.2 mph 15 mph 37% 0 in CLR
16:14 90.5 °F 60.6 °F 30 in ENE 10.2 mph 15 mph 37% 0 in CLR
16:19 90.1 °F 60.4 °F 30 in NE 9.7 mph 20.7 mph 37% 0 in CLR
16:24 90.5 °F 59.2 °F 30 in NE 9.7 mph 18.4 mph 35% 0 in CLR
16:29 90.7 °F 59.4 °F 30 in NE 10.2 mph 15.2 mph 35% 0 in CLR
16:34 90.7 °F 59.4 °F 30 in East 10.2 mph 15 mph 35% 0 in CLR
16:39 90.9 °F 58.6 °F 30 in NE 10.7 mph 16.1 mph 34% 0 in CLR
16:44 90.7 °F 60.1 °F 30 in NE 10.7 mph 18.4 mph 36% 0 in CLR
16:49 90.7 °F 56.8 °F 30 in ENE 10.7 mph 13.8 mph 32% 0 in CLR
16:54 90.5 °F 56.7 °F 30 in NNE 10.7 mph 19 mph 32% 0 in CLR
16:59 90.9 °F 56.8 °F 30 in NNE 12.5 mph 21.3 mph 32% 0 in CLR
17:04 90.1 °F 57.9 °F 30 in ENE 12.5 mph 19.6 mph 34% 0 in CLR
17:09 90.7 °F 56.8 °F 30 in NE 11.8 mph 15 mph 32% 0 in CLR
17:14 90.9 °F 56.8 °F 30 in NNE 11.8 mph 17.3 mph 32% 0 in CLR
17:19 90.5 °F 56.7 °F 30 in NNE 12.3 mph 20.7 mph 32% 0 in CLR
17:24 90.5 °F 56.7 °F 30 in North 12.3 mph 18.1 mph 32% 0 in CLR
17:29 90.3 °F 58.1 °F 30 in NE 13.5 mph 14.5 mph 34% 0 in CLR
17:34 90.7 °F 57.6 °F 30 in NE 13.5 mph 13.8 mph 33% 0 in CLR
17:39 90.9 °F 57.7 °F 30 in NE 10.7 mph 16.1 mph 33% 0 in CLR
17:44 90.7 °F 60.1 °F 30 in NE 10.7 mph 19 mph 36% 0 in CLR
17:49 90.1 °F 61.2 °F 30 in ENE 11.2 mph 13.8 mph 38% 0 in CLR
17:54 90 °F 58.6 °F 30 in NE 11.2 mph 17.5 mph 35% 0 in CLR
17:59 89.8 °F 58.5 °F 30 in East 12.5 mph 21.9 mph 35% 0 in CLR
18:04 90 °F 59.4 °F 30 in NE 12.5 mph 17.3 mph 36% 0 in CLR
18:09 89.4 °F 59 °F 30 in NE 13.5 mph 16.1 mph 36% 0 in CLR
18:14 89.4 °F 58.3 °F 30 in NE 13.5 mph 20.7 mph 35% 0 in CLR
18:19 89.4 °F 59 °F 30 in ENE 12.5 mph 17.3 mph 36% 0 in CLR
18:24 89.6 °F 58.3 °F 30 in NE 12.5 mph 18.4 mph 35% 0 in CLR
18:29 89.4 °F 57.4 °F 30 in NNE 13 mph 19.2 mph 34% 0 in CLR
18:34 89.1 °F 57 °F 30 in NE 13 mph 25.3 mph 34% 0 in CLR
18:39 89.4 °F 56.5 °F 30 in NNE 13.5 mph 21.9 mph 33% 0 in CLR
18:44 89.2 °F 57.2 °F 30 in NE 13.5 mph 24.2 mph 34% 0 in CLR
18:49 89.1 °F 57 °F 30 in ENE 14 mph 21.9 mph 34% 0 in CLR
18:54 88.9 °F 57.7 °F 30 in NE 14 mph 19.7 mph 35% 0 in CLR
18:59 88.9 °F 58.5 °F 30 in NE 13.7 mph 17.3 mph 36% 0 in CLR
19:04 88.9 °F 56.8 °F 30 in NE 13.7 mph 21.9 mph 34% 0 in CLR
19:09 89.1 °F 57.7 °F 30 in ENE 12.3 mph 20.7 mph 35% 0 in CLR
19:14 88.5 °F 58.3 °F 30 in NE 12.3 mph 17.3 mph 36% 0 in CLR
19:19 88.5 °F 58.8 °F 30 in ENE 13 mph 20.7 mph 37% 0 in CLR
19:24 88.3 °F 58.8 °F 30 in ENE 13 mph 20.7 mph 37% 0 in CLR
19:29 88.3 °F 58.8 °F 30 in NE 14 mph 17.3 mph 37% 0 in CLR
19:34 88.2 °F 58.6 °F 30 in NNE 14 mph 19.6 mph 37% 0 in CLR
19:39 88 °F 58.5 °F 30 in NE 12.5 mph 17.3 mph 37% 0 in CLR
19:44 87.8 °F 60.4 °F 30 in NE 12.5 mph 15 mph 40% 0 in CLR
19:49 87.6 °F 61 °F 30 in NE 10.7 mph 18.4 mph 41% 0 in CLR
19:54 87.4 °F 61.5 °F 30 in East 10.7 mph 11.5 mph 42% 0 in CLR
19:59 87.3 °F 61.3 °F 30 in NE 8.7 mph 11.5 mph 42% 0 in CLR
20:04 87.1 °F 61.2 °F 30 in ENE 8.7 mph 12.7 mph 42% 0 in CLR
20:09 86.7 °F 61.5 °F 30 in NE 7.4 mph 13.8 mph 43% 0 in CLR
20:14 86.5 °F 61.3 °F 30 in ENE 7.4 mph 13 mph 43% 0 in CLR
20:19 86.4 °F 61.9 °F 30 in NE 7.4 mph 11.5 mph 44% 0 in CLR
20:24 86 °F 62.2 °F 30 in NE 7.4 mph 15 mph 45% 0 in CLR
20:29 85.8 °F 62.1 °F 30 in ENE 8.1 mph 10.7 mph 45% 0 in CLR
20:34 85.6 °F 62.4 °F 30 in ENE 8.1 mph 13.8 mph 46% 0 in CLR
20:39 85.5 °F 62.2 °F 30 in ENE 7.4 mph 11.5 mph 46% 0 in CLR
20:44 85.5 °F 63 °F 30 in NNE 7.4 mph 8.1 mph 47% 0 in CLR
20:49 85.3 °F 62.8 °F 30 in East 5.9 mph 8.1 mph 47% 0 in CLR
20:54 84.9 °F 62.4 °F 30 in NE 5.9 mph 9.2 mph 47% 0 in CLR
20:59 84.9 °F 63 °F 30 in NE 5.4 mph 8.1 mph 48% 0 in CLR
21:04 84.7 °F 63.5 °F 30 in East 5.4 mph 8.1 mph 49% 0 in CLR
21:09 84.4 °F 63.1 °F 30 in NE 4.7 mph 5.8 mph 49% 0 in CLR
21:14 84 °F 63.3 °F 30 in NE 4.7 mph 8.7 mph 50% 0 in CLR
21:19 83.8 °F 63.1 °F 30 in ENE 5.4 mph 9.2 mph 50% 0 in CLR
21:24 83.7 °F 63.7 °F 30 in ENE 5.4 mph 10.4 mph 51% 0 in CLR
21:29 83.5 °F 64 °F 30 in NE 5.4 mph 9.2 mph 52% 0 in CLR
21:34 83.1 °F 63.7 °F 30 in NE 5.4 mph 9.2 mph 52% 0 in CLR
21:39 82.9 °F 64 °F 30 in NNE 5.2 mph 4.6 mph 53% 0 in CLR
21:44 82.8 °F 64.4 °F 30 in NE 5.2 mph 4.7 mph 54% 0 in CLR
21:49 82.6 °F 64.2 °F 30 in NE 4.3 mph 8.1 mph 54% 0 in CLR
21:54 82.2 °F 64.4 °F 30 in ENE 4.3 mph 9.2 mph 55% 0 in CLR
21:59 82 °F 64.2 °F 30 in NE 6.4 mph 9.2 mph 55% 0 in CLR
22:04 82 °F 64.8 °F 30 in NE 6.4 mph 10.4 mph 56% 0 in CLR
22:09 81.9 °F 65.1 °F 30 in NE 7.4 mph 11.2 mph 57% 0 in CLR
22:14 81.5 °F 65.3 °F 30 in ENE 7.4 mph 12.7 mph 58% 0 in CLR
22:19 81.3 °F 65.7 °F 30 in ENE 8.1 mph 10.4 mph 59% 0 in CLR
22:24 81.1 °F 65.8 °F 30 in NNE 8.1 mph 10.4 mph 60% 0 in CLR
22:29 81 °F 65.8 °F 30 in ENE 6.9 mph 6.9 mph 60% 0 in CLR
22:34 80.8 °F 66 °F 30 in NNE 6.9 mph 10.4 mph 61% 0 in CLR
22:39 80.6 °F 65.8 °F 30 in NE 6.2 mph 9.7 mph 61% 0 in CLR
22:44 80.4 °F 65.7 °F 30 in NNE 6.2 mph 6.9 mph 61% 0 in CLR
22:49 80.4 °F 66.2 °F 30 in NNE 5.4 mph 4.7 mph 62% 0 in CLR
22:54 80.2 °F 66 °F 30 in NE 5.4 mph 5.8 mph 62% 0 in CLR
22:59 80.2 °F 66 °F 30 in NE 4.3 mph 8.1 mph 62% 0 in CLR
23:04 80.2 °F 66 °F 30 in ENE 4.3 mph 8.1 mph 62% 0 in CLR
23:09 80.1 °F 66.4 °F 30 in ENE 5.2 mph 6.9 mph 63% 0 in CLR
23:14 80.1 °F 66.4 °F 30 in NE 5.2 mph 4.6 mph 63% 0 in CLR
23:19 80.1 °F 66.4 °F 30.1 in NW 3.6 mph 2.4 mph 63% 0 in CLR
23:24 79.9 °F 66.2 °F 30.1 in NW 3.6 mph 2.4 mph 63% 0 in CLR
23:29 79.7 °F 66.4 °F 30.1 in NW 2 mph 2 mph 64% 0 in CLR
23:34 79.5 °F 66.4 °F 30.1 in NW 2 mph   64% 0 in CLR
23:39 79.5 °F 66.4 °F 30.1 in Calm   3.6 mph 64% 0 in CLR
23:44 79.5 °F 66.4 °F 30.1 in Calm   4.6 mph 64% 0 in CLR
23:49 79.5 °F 66.4 °F 30.1 in NNW 2.4 mph 1.4 mph 64% 0 in CLR
23:54 79.5 °F 66.4 °F 30.1 in NE 2.4 mph 4.6 mph 64% 0 in CLR
23:59 79.5 °F 66.4 °F 30.1 in NE 2.4 mph 5.8 mph 64% 0 in CLR
Murcia-Puente Tocinos, España
Compliments of Weather Underground - 2.75 mb

La estación de MeteoMurcia.com, publica sus datos en los siguientes proyectos:

Weather Underground PWS IMURCIAP2 Meteoclimatic www.awekas.at

W3Counter
Web Analytics